FW2265 Weather Reports


Display with metric or nautical units.
time (UTC)temp
F
wind
direction
speed
MPH
gust
MPH
rain 1hr
in
rain 24hr
in
rain mn
in
humidity
%
barometer
mb
20260905022831 83 202 0.0 1.0 0.00 0.08 0.08 82 1014.4
20260905021829 83 202 0.0 0.0 0.00 0.08 0.08 81 1014.3
20260905020829 84 202 0.0 0.0 0.00 0.08 0.08 80 1013.8
20260905015928 84 202 0.0 0.0 0.00 0.08 0.08 79 1013.8
20260905014930 84 202 0.0 0.0 0.00 0.08 0.08 78 1013.8
20260905013930 84 202 0.0 1.0 0.00 0.08 0.08 77 1013.7
20260905013028 85 157 0.0 0.0 0.00 0.08 0.08 77 1013.7
20260905012030 85 171 0.0 0.0 0.00 0.08 0.08 77 1013.5
20260905010129 85 225 0.0 0.0 0.00 0.08 0.08 76 1013.4
20260905005129 86 225 0.0 0.0 0.00 0.08 0.08 76 1013.3
20260905003228 86 225 0.0 2.0 0.00 0.08 0.08 74 1013.1
20260905002231 87 181 0.0 0.0 0.00 0.08 0.08 74 1013.1
20260905001328 87 216 0.0 1.0 0.00 0.08 0.08 73 1013.1
20260905000332 88 228 0.0 1.0 0.00 0.08 0.08 72 1013.2
20260904234428 88 202 0.0 0.0 0.00 0.08 0.08 71 1013.0
20260904233527 89 204 0.0 3.0 0.00 0.08 0.08 70 1013.1
20260904232530 89 171 0.0 0.0 0.00 0.08 0.08 68 1013.0
20260904231531 90 20 0.0 2.0 0.00 0.08 0.08 66 1013.1
20260904230629 90 260 0.0 3.0 0.00 0.08 0.08 68 1013.1
20260904224628 90 128 0.0 0.0 0.00 0.08 0.08 67 1013.1
20260904223628 90 50 0.0 2.0 0.00 0.08 0.08 68 1013.1
20260904222629 90 79 0.0 0.0 0.00 0.08 0.08 68 1013.1
20260904221630 90 143 0.0 0.0 0.00 0.08 0.08 69 1013.1
20260904220728 89 191 0.0 0.0 0.00 0.08 0.08 71 1012.9
20260904215729 90 230 0.0 3.0 0.00 0.08 0.08 68 1012.9
20260904214728 91 200 1.0 3.0 0.00 0.08 0.08 65 1013.2
20260904213729 91 82 0.0 0.0 0.00 0.08 0.08 66 1013.2
20260904212729 91 48 1.0 4.0 0.00 0.08 0.08 63 1013.4
20260904210829 91 342 1.0 3.0 0.00 0.08 0.08 65 1013.4
20260904205828 91 210 0.0 0.0 0.00 0.08 0.08 65 1013.7
20260904204828 91 218 1.0 4.0 0.00 0.08 0.08 66 1013.7
20260904203828 90 202 0.0 1.0 0.00 0.08 0.08 67 1013.9
20260904202829 89 92 0.0 0.0 0.01 0.08 0.08 71 1013.9
20260904201829 86 193 0.0 0.0 0.03 0.08 0.08 78 1014.2
20260904200928 86 45 0.0 0.0 0.04 0.08 0.08 80 1014.3
20260904200028 86 22 0.0 1.0 0.04 0.08 0.08 83 1014.3
20260904195047 83 45 0.0 0.0 0.04 0.08 0.08 91 1014.4
20260904194028 80 225 0.0 1.0 0.05 0.08 0.08 89 1014.6
20260904192030 81 225 0.0 0.0 0.05 0.05 0.05 88 1014.8
20260904191029 81 207 0.0 0.0 0.04 0.04 0.04 84 1015.0
20260904190029 81 202 0.0 0.0 0.04 0.04 0.04 82 1015.0
20260904185030 83 202 0.0 0.0 0.04 0.04 0.04 81 1015.1
20260904183028 87 53 0.0 3.0 0.01 0.01 0.00 71 1015.2
20260904182028 88 195 0.0 1.0 0.00 0.00 0.00 71 1015.3
20260904181030 89 180 0.0 1.0 0.00 0.00 0.00 71 1015.5
20260904180928 89 172 0.0 1.0 0.00 0.00 0.00 71 1015.6
20260904175930 89 143 0.0 0.0 0.00 0.00 0.00 68 1015.5
20260904175028 90 67 0.0 0.0 0.00 0.00 0.00 68 1015.7
20260904174030 91 45 1.0 1.0 0.00 0.00 0.00 66 1015.6
20260904173030 93 40 0.0 2.0 0.00 0.00 0.00 63 1015.7
20260904172030 94 15 1.0 2.0 0.00 0.00 0.00 62 1015.7
20260904171029 93 45 0.0 0.0 0.00 0.00 0.00 63 1015.8
20260904165028 91 135 0.0 0.0 0.00 0.00 0.00 66 1016.0
20260904164028 88 281 1.0 4.0 0.00 0.00 0.00 72 1016.2
20260904162127 85 225 1.0 3.0 0.00 0.00 0.00 78 1016.2
20260904161130 85 229 0.0 0.0 0.00 0.00 0.00 78 1016.0
20260904155227 85 225 0.0 2.0 0.00 0.00 0.00 81 1015.9
20260904154227 84 273 0.0 1.0 0.00 0.00 0.00 82 1015.9
20260904152329 84 67 0.0 1.0 0.00 0.00 0.00 82 1016.1
20260904151329 84 360 0.0 1.0 0.00 0.00 0.00 82 1015.4
20260904143430 83 225 0.0 0.0 0.00 0.00 0.00 87 1015.3
20260904142429 83 225 0.0 0.0 0.00 0.00 0.00 87 1015.3
20260904142330 83 225 0.0 0.0 0.00 0.00 0.00 86 1015.2
20260904141227 82 225 0.0 0.0 0.00 0.00 0.00 87 1015.2
20260904140229 82 225 0.0 0.0 0.00 0.00 0.00 89 1015.2
20260904135228 81 225 0.0 0.0 0.00 0.00 0.00 90 1015.1
20260904134230 81 225 0.0 0.0 0.00 0.00 0.00 91 1014.9
20260904133328 81 225 0.0 0.0 0.00 0.00 0.00 91 1015.0
20260904132328 81 225 0.0 0.0 0.00 0.00 0.00 91 1014.8
20260904131327 81 225 0.0 0.0 0.00 0.00 0.00 92 1014.9
20260904125327 80 225 0.0 0.0 0.00 0.00 0.00 94 1014.8
20260904124329 79 225 0.0 0.0 0.00 0.00 0.00 94 1014.8
20260904123331 79 225 0.0 0.0 0.00 0.00 0.00 94 1014.4
20260904122328 79 225 0.0 0.0 0.00 0.00 0.00 93 1014.3
20260904114428 79 225 0.0 0.0 0.00 0.00 0.00 93 1014.0
20260904113428 79 225 0.0 0.0 0.00 0.00 0.00 93 1014.0
20260904112429 79 225 0.0 0.0 0.00 0.00 0.00 92 1013.9
20260904111431 79 225 0.0 0.0 0.00 0.00 0.00 92 1014.1
20260904110429 80 225 0.0 0.0 0.00 0.00 0.00 93 1014.0
20260904105429 80 225 0.0 0.0 0.00 0.00 0.00 92 1014.1
20260904104428 80 225 0.0 0.0 0.00 0.00 0.00 91 1014.2
20260904103428 80 225 0.0 0.0 0.00 0.00 0.00 91 1013.9
20260904102429 80 225 0.0 0.0 0.00 0.00 0.00 91 1013.7
20260904101527 80 225 0.0 0.0 0.00 0.00 0.00 91 1013.7
20260904100530 80 225 0.0 0.0 0.00 0.00 0.00 91 1013.7
20260904095530 80 225 0.0 0.0 0.00 0.00 0.00 91 1013.5
20260904094528 80 225 0.0 0.0 0.00 0.00 0.00 90 1013.6
20260904093529 80 225 0.0 0.0 0.00 0.00 0.00 90 1013.4
20260904092529 80 225 0.0 0.0 0.00 0.00 0.00 90 1013.5
20260904085629 81 225 0.0 0.0 0.00 0.00 0.00 88 1013.4
20260904084629 81 225 0.0 0.0 0.00 0.00 0.00 87 1013.3
20260904084528 81 225 0.0 0.0 0.00 0.00 0.00 87 1013.3
20260904083527 81 225 0.0 0.0 0.00 0.00 0.00 86 1013.4
20260904082530 81 225 0.0 0.0 0.00 0.00 0.00 87 1013.4
20260904081530 82 225 0.0 0.0 0.00 0.00 0.00 87 1013.4
20260904080528 82 225 0.0 0.0 0.00 0.00 0.00 86 1013.4
20260904080429 82 225 0.0 0.0 0.00 0.00 0.00 85 1013.4
20260904075431 82 225 0.0 0.0 0.00 0.00 0.00 85 1013.4
20260904074428 82 225 0.0 0.0 0.00 0.00 0.00 86 1013.6
20260904073429 82 225 0.0 0.0 0.00 0.00 0.00 86 1013.5
20260904072428 82 202 0.0 0.0 0.00 0.00 0.00 85 1013.5
20260904071427 82 202 0.0 0.0 0.00 0.00 0.00 85 1013.5
20260904070527 82 202 0.0 0.0 0.00 0.00 0.00 85 1013.7
20260904065529 82 202 0.0 0.0 0.00 0.00 0.00 85 1013.7
20260904064529 82 225 0.0 1.0 0.00 0.00 0.00 85 1013.6
20260904062529 83 225 1.0 1.0 0.00 0.00 0.00 85 1013.7
20260904061530 83 225 0.0 0.0 0.00 0.00 0.00 85 1013.7
20260904060531 83 225 0.0 1.0 0.00 0.00 0.00 85 1013.7
20260904055527 83 225 1.0 2.0 0.00 0.00 0.00 85 1013.6
20260904054528 82 225 0.0 2.0 0.00 0.00 0.00 86 1013.7
20260904053529 83 225 0.0 0.0 0.00 0.00 0.00 87 1013.6
20260904052627 83 225 0.0 0.0 0.00 0.00 0.00 87 1013.7
20260904051629 83 225 0.0 0.0 0.00 0.00 0.00 87 1013.7
20260904051527 83 225 0.0 0.0 0.00 0.00 0.00 87 1013.8
20260904050428 83 225 0.0 1.0 0.00 0.00 0.00 87 1013.7
20260904050344 83 225 0.0 1.0 0.00 0.00 0.00 87 1013.8
20260904045438 83 225 0.0 0.0 0.00 0.00 0.00 86 1013.9
20260904044436 83 202 0.0 0.0 0.00 0.00 0.00 85 1013.8
20260904043438 83 202 0.0 1.0 0.00 0.00 0.00 86 1014.0
20260904042535 83 202 0.0 0.0 0.00 0.00 0.00 85 1013.9
20260904041537 82 202 0.0 0.0 0.00 0.00 0.00 85 1013.9
20260904040537 82 225 0.0 1.0 0.00 0.00 0.00 85 1014.1
20260904035538 82 225 0.0 0.0 0.00 0.00 0.00 84 1013.9
20260904032536 83 225 0.0 0.0 0.00 0.00 0.00 83 1014.1
20260904031635 83 225 0.0 1.0 0.00 0.00 0.00 83 1013.9
20260904030636 83 225 0.0 0.0 0.00 0.00 0.00 83 1014.0
20260904025635 83 225 0.0 1.0 0.00 0.00 0.00 84 1013.9
20260904024636 83 225 0.0 0.0 0.00 0.00 0.00 84 1014.0